Location: Isín
(42.5994°N, 0.4043°W)
Time: 11:19:18
(UTC+00:00)

Daily predictions for brighter satellites

Satellite Brightness Start Highest point End
(mag) Time Altitude Azimuth Time Altitude Azimuth Time Altitude Azimuth
BREEZE-M DEB (TANK) 4.4 19:47:40 10° SW 19:53:11 77° SE 20:15:35 10° ENE
USA 307 3.6 20:12:16 10° WNW 20:16:14 44° SW 20:20:11 10° SSE
ERBS 2.0 20:13:46 10° NW 20:16:46 87° NNE 20:19:47 10° SE
GEOS 3 Rocket 4.5 20:13:23 10° SSE 20:18:14 45° WSW 20:23:08 10° NW
Cosmos 405 Rocket 4.3 20:16:05 10° SSW 20:19:53 40° WNW 20:23:42 10° N
Cosmos 1943 3.2 20:14:31 10° SSW 20:20:10 78° ESE 20:25:50 10° NNE
Cosmos 1553 Rocket 4.1 20:14:40 10° S 20:21:00 82° E 20:27:26 10° N
Cosmos 1603 3.7 20:19:35 10° SSW 20:25:15 75° ESE 20:30:59 10° NNE
Okean 1 Rocket 3.1 20:22:17 10° N 20:26:46 70° E 20:31:12 10° SSE
USA 267 3.8 20:22:53 10° ENE 20:28:50 36° SE 20:34:45 10° SSW
H-2A R/B 3.9 20:25:23 10° SSW 20:28:54 33° W 20:32:23 10° NNW
DELTA 2 R/B (1) 3.8 20:23:37 10° W 20:29:06 58° S 20:34:36 10° ESE
Cosmos 1953 2.2 20:26:28 10° N 20:30:26 84° E 20:34:21 10° S
Cosmos 1455 Rocket 4.3 20:27:05 10° NNE 20:30:46 26° ENE 20:34:18 10° SE
Cosmos 1238 Rocket 4.0 20:28:50 10° NNW 20:34:10 75° W 20:40:18 10° S
Landsat 7 4.4 20:30:20 10° S 20:34:57 56° W 20:39:37 10° NNW
CZ-4B R/B 0.9 20:32:11 10° NNE 20:35:04 67° ESE 20:37:55 10° S
S3M 4.0 20:29:09 10° S 20:35:18 66° E 20:41:24 10° NNE
Cosmos 1025 Rocket 4.1 20:32:56 10° SSE 20:36:31 27° E 20:40:06 10° NNE
APEX 4.3 20:33:24 10° SSW 20:39:29 78° WNW 20:44:36 10° NNE
IRS-1A Rocket 4.5 20:35:50 10° SSE 20:41:45 86° WSW 20:47:42 10° NNW
Cosmos 1607 4.4 20:40:58 10° S 20:46:38 37° ESE 20:52:16 10° NE
IRAS Rocket 4.3 20:41:37 10° NNE 20:47:13 68° ESE 20:52:45 10° S
Helios 1A Rocket 4.1 20:45:44 13° ESE 20:48:42 28° ENE 20:52:13 10° N
Cosmos 1455 3.9 20:51:27 10° NNE 20:54:12 19° ENE 20:56:08 13° ESE
ATLAS 2AS CENTAUR R/B 3.9 20:48:25 10° NNW 20:54:53 34° NE 21:00:55 10° ESE
SPOT 3 Rocket 3.7 20:51:44 12° SSE 20:56:25 65° ENE 21:01:35 10° N
Cosmos 2251 Rocket 3.7 20:52:42 10° NNW 20:58:02 73° WSW 21:03:07 11° S
Cosmos 2369 Rocket 3.3 20:53:46 10° NW 20:58:56 39° WSW 21:04:05 10° S
Lacrosse 4 Rocket 3.5 20:55:35 10° WSW 20:59:16 30° NW 21:02:55 10° N
NOSS 3-4 (A) 4.0 20:53:47 10° NW 21:00:54 83° WSW 21:07:47 15° SSE
Meteor 1-24 Rocket 3.9 20:55:58 10° SSE 21:00:57 47° E 21:06:04 10° NNE
NOSS 3-4 (C) 4.0 20:53:53 10° NW 21:00:59 84° WSW 21:07:49 15° SSE
Cosmos 1975 Rocket 3.1 20:56:40 10° S 21:01:04 62° E 21:05:28 10° NNE
Cosmos 1624 Rocket 4.3 20:56:44 10° S 21:01:43 47° ESE 21:06:43 10° NNE
SPOT 5 3.2 21:01:00 17° SE 21:04:13 45° ENE 21:08:24 10° N
H-2A R/B 3.7 21:00:28 10° N 21:04:30 37° WNW 21:08:35 10° SW
CARTOSAT-1 3.5 21:00:50 13° SSE 21:04:37 89° E 21:08:58 10° NNW
Cosmos 1745 Rocket 4.2 20:59:55 10° NNW 21:06:02 73° W 21:12:09 10° S
Cosmos 1190 Rocket 4.4 21:02:24 10° NNW 21:07:38 54° ENE 21:11:23 19° SE
X-37B 1.0 21:08:29 10° SW 21:11:01 31° SSE 21:11:33 28° SE
ATLAS CENTAUR Rocket 3.7 21:11:25 10° SW 21:12:35 11° SSW 21:13:15 11° S
Cosmos 407 Rocket 3.4 21:08:35 10° NNW 21:13:48 90° WSW 21:17:38 18° SSE
Resurs 01 Rocket 3.1 21:11:29 10° SSW 21:15:28 33° W 21:19:31 10° NNW
CZ-2C R/B 4.1 21:11:57 10° NNE 21:16:22 44° E 21:19:12 20° SSE
Lacrosse 5 rocket 2.6 21:17:47 10° NNW 21:21:18 32° NE 21:24:15 14° E
Cosmos 2056 Rocket 3.5 21:16:17 10° S 21:21:35 72° ESE 21:27:00 10° NNE
Cosmos 1544 Rocket 4.0 21:18:03 10° N 21:22:14 46° ENE 21:24:27 24° SE
GENESIS II 4.3 21:19:19 10° NW 21:23:22 73° WSW 21:25:36 25° SSE
ATLAS 5 CENTAUR R/B 3.0 21:11:20 10° NW 21:23:38 79° SW 21:26:13 24° SSE
Meteor 2-10 Rocket 4.2 21:21:06 10° NNW 21:25:59 49° W 21:30:36 11° SSW
ERS-1 Rocket 3.0 21:24:22 22° SSE 21:27:41 71° ENE 21:32:42 10° N
Cosmos 1833 Rocket 4.3 21:27:39 16° ESE 21:28:23 16° E 21:31:40 10° ENE
Lacrosse 5 3.2 21:27:22 10° NW 21:32:02 34° NNE 21:36:18 12° E
Cosmos 1420 Rocket 3.9 21:27:41 10° S 21:32:48 72° ESE 21:38:04 10° NNE
Cosmos 676 Rocket 4.3 21:29:08 10° NNW 21:34:23 56° ENE 21:37:18 25° SE
Cosmos 1140 Rocket 4.0 21:29:21 10° NNW 21:34:25 55° WSW 21:38:04 18° S
Tiangong 0.9 21:31:37 10° W 21:34:47 72° S 21:36:05 32° E
Cosmos 2084 3.1 21:31:49 10° SSW 21:35:36 65° SE 21:39:26 10° NE
USA 32 4.0 21:31:33 17° S 21:35:40 84° E 21:40:55 10° N
Cosmos 2315 Rocket 4.3 21:33:18 10° SSW 21:39:37 70° W 21:45:57 10° N
Cosmos 1271 Rocket 2.7 21:41:32 10° N 21:45:32 72° E 21:47:01 36° SSE
Atlas Centaur 2 3.6 21:45:06 10° SW 21:45:37 11° SSW 21:45:37 11° SSW
Terra 1.8 21:46:06 28° SSE 21:48:36 88° ENE 21:53:24 10° NNW
ARIANE 5 R/B 2.7 21:46:38 32° SE 21:48:38 66° ENE 21:53:04 10° N
Meteor 2-5 Rocket 4.5 21:48:53 10° SSW 21:54:13 50° WNW 21:59:38 10° N
Cosmos 1954 Rocket 4.0 21:49:49 10° NNW 21:55:08 89° WSW 21:57:40 32° SSE
SAR-Lupe-4 3.9 22:00:10 10° NNE 22:03:36 44° E 22:03:44 44° ESE
Cosmos 2074 Rocket 4.0 21:58:14 10° N 22:04:32 74° E 22:07:42 31° SSE
USA 267 3.6 22:05:35 10° NE 22:12:05 69° NW 22:18:34 10° WSW
COSMOS 2406 4.5 22:13:20 23° ESE 22:13:46 23° E 22:18:11 10° NE
SAR-Lupe-1 3.9 22:15:20 10° NNE 22:18:55 83° ESE 22:19:19 67° S
Cosmos 1331 Rocket 4.5 22:19:08 38° SE 22:20:13 42° ESE 22:25:12 10° NNE
NOSS 2-1 (C) 4.1 22:15:35 10° NW 22:20:19 81° NE 22:23:02 35° SE
TSX-5 4.0 22:19:37 44° S 22:20:57 75° ESE 22:26:13 10° NNE
Nadezhda 1 Rocket 3.9 22:18:57 34° SSE 22:21:40 69° E 22:27:43 10° NNE
ASTEX 1 3.7 22:18:27 10° NNE 22:23:19 50° E 22:24:31 41° SE
Cosmos 1452 Rocket 3.4 22:21:04 34° S 22:23:27 81° ESE 22:28:43 10° NNE
Cosmos 2154 Rocket 4.0 22:19:01 10° N 22:25:16 75° E 22:27:53 37° SSE
Cosmos 1703 3.3 22:26:59 49° SW 22:27:52 69° W 22:31:43 10° N
Cosmos 1328 4.1 22:28:57 47° E 22:29:05 48° E 22:32:58 10° NNE
Cosmos 1455 3.7 22:26:23 10° NNW 22:29:40 28° W 22:30:54 23° WSW
Cosmos 724 4.5 22:24:47 10° SW 22:30:34 69° NW 22:36:22 10° NNE
NOSS 2-1 (D) 4.1 22:25:54 10° NW 22:30:41 86° WSW 22:33:08 39° SSE
Meteor 1-21 Rocket 4.1 22:29:24 39° S 22:31:31 78° E 22:37:09 10° NNE
Cosmos 1610 Rocket 4.5 22:25:52 10° N 22:32:05 76° E 22:34:35 39° SSE
Cosmos 1536 Rocket 4.3 22:30:28 27° SW 22:32:26 47° WNW 22:36:38 10° N
Cosmos 1110 Rocket 3.9 22:37:53 46° S 22:39:22 70° ESE 22:44:38 10° NNE
Cosmos 1980 Rocket 3.8 22:35:38 10° N 22:40:22 26° NE 22:43:31 17° E
Cosmos 1295 Rocket 4.4 22:35:17 10° N 22:41:35 88° WSW 22:44:01 40° S
Cosmos 1606 Rocket 3.4 22:39:12 10° N 22:43:31 74° E 22:44:04 64° SE
Cosmos 1697 Rocket 3.2 22:39:08 10° NNW 22:44:36 50° ENE 22:46:39 34° ESE
USA 234 3.2 22:41:26 30° SE 22:44:59 84° NE 22:51:35 10° NW
ATLAS 2AS CENTAUR R/B 2.8 22:39:19 10° NW 22:46:12 60° WSW 22:48:38 39° S
Cosmos 1892 4.0 22:48:56 28° ENE 22:48:56 28° ENE 22:51:37 10° NNE
Cosmos 2228 3.3 22:48:18 10° NNW 22:52:27 54° W 22:53:05 48° SW
RESURS DK-1 2.4 22:52:04 10° NNW 22:56:11 67° ENE 22:56:28 64° E
Lacrosse 5 rocket 2.3 22:56:40 10° WNW 22:59:45 34° WSW 22:59:45 34° WSW
SL-8 Rocket 4.3 22:56:06 10° N 23:02:15 56° ENE 23:04:12 40° SE
Cosmos 1656 4.0 23:01:40 10° NW 23:06:58 52° WSW 23:08:10 43° SSW
ALOS 2 3.0 23:07:30 47° E 23:07:59 49° ENE 23:12:13 10° N
Cosmos 2218 Rocket 4.4 23:01:45 10° N 23:08:01 53° ENE 23:10:07 38° SE
Meteor 2-1 Rocket 4.3 23:03:27 10° NNW 23:08:53 64° W 23:10:21 46° SSW
Cosmos 1726 Rocket 3.4 23:05:13 10° NNW 23:09:31 75° W 23:09:48 71° SW
Cosmos 1741 Rocket 4.3 23:05:40 10° NNW 23:10:53 57° WSW 23:11:57 48° SSW
Cosmos 2360 4.2 23:05:26 10° NNW 23:11:12 79° ENE 23:12:45 50° SE
Cosmos 2341 Rocket 4.0 23:05:12 10° N 23:11:36 79° E 23:13:32 47° SSE
Cosmos 1833 Rocket 2.8 23:09:17 36° SW 23:11:37 72° WNW 23:17:15 10° NNE
Lacrosse 5 2.0 23:10:15 10° NW 23:15:13 54° SW 23:15:28 53° SW
Cosmos 2366 rocket 4.2 23:09:56 10° N 23:16:11 60° E 23:18:08 42° SE
Cosmos 967 Rocket 4.4 23:13:34 39° SSW 23:16:14 85° ESE 23:22:44 10° NNE
SL-8 R/B 4.5 23:15:56 10° WNW 23:20:38 51° NNE 23:24:35 14° E
Cosmos 968 Rocket 3.7 23:21:56 10° NNW 23:27:06 63° ENE 23:28:09 51° ESE
Cosmos 2082 Rocket 2.2 23:26:56 56° SSE 23:27:54 65° ESE 23:33:32 10° NNE
ATLAS 5 CENTAUR R/B 3.8 23:30:58 11° ENE 23:30:58 11° ENE 23:31:14 10° ENE
Cosmos 1633 4.5 23:31:19 21° ENE 23:31:19 21° ENE 23:33:10 10° NE
USA 276 4.3 23:29:52 16° WNW 23:31:24 24° NNW 23:33:53 10° NE
Cosmos 2058 Rocket 3.1 23:31:07 10° NNW 23:35:30 69° W 23:35:36 68° WSW
Cosmos 1900 4.3 23:32:46 10° NNW 23:37:57 83° ENE 23:38:45 64° SE
Cosmos 1892 Rocket 4.5 23:39:28 36° W 23:40:11 39° WNW 23:44:19 10° N
Meteor 1-27 4.1 23:36:57 10° N 23:42:33 78° E 23:43:39 58° SSE
Cosmos 1869 3.6 23:39:02 10° N 23:42:27 59° NE 23:42:27 59° NE
GP-B 4.3 23:39:51 10° NNW 23:43:47 32° W 23:44:30 30° W
Cosmos 1959 Rocket 4.3 23:37:55 10° N 23:44:04 87° W 23:45:36 54° S
Cosmos 2181 Rocket 3.9 23:42:45 49° SSW 23:44:30 78° W 23:50:42 10° N
Cosmos 1408 3.9 23:47:02 33° WNW 23:47:02 33° WNW 23:49:45 10° N
